[[{"header":{"parameterUnit":"m.s-1","parameterCategory":1,"la1":30.2991,"la2":30.254,"lo1":-89.0895,"lo2":-89.0444,"dy":0.0017,"dx":0.0017,"nx":28,"ny":28,"refTime":"2023-11-06T09:00:00:Z","depth":0,"parameterNumber":2,"parameterNumberName":"U-component_of_WINDS"},"data":[0,0,0,0,0,0,0,0,0,0,0,0,0,0,0,0,0,0,0,0,0,0,0,0,0,0,0,0,0,0,0,0,0,0,0,0,0,0,0,0,0,0,0,0,0,0,0,0,0,0,0,0,0,0,0,0,0,0,-0.0784,-0.0784,0,-0.0826,-0.0826,-0.0827,-0.0733,-0.073,-0.0727,-0.0725,-0.0771,-0.0775,-0.0779,0,0,0,0,0,0,0,0,0,0,0,0,0,-0.0624,-0.0628,-0.0784,-0.0784,-0.0785,-0.0826,-0.0826,-0.0827,-0.0734,-0.073,-0.0727,-0.0723,-0.0769,-0.0774,-0.0779,0,0,0,0,0,0,0,0,0,0,0,0,0,-0.0683,-0.0629,-0.0784,-0.0743,-0.074,-0.0825,-0.0826,-0.0827,-0.0735,-0.073,-0.0726,-0.0722,-0.0768,-0.0774,-0.078,-0.0907,0,0,-0.0798,-0.0801,0,0,0,0,0,0,0,0,-0.068,-0.0689,-0.0749,-0.0746,-0.0743,-0.077,-0.0787,-0.0854,-0.0736,-0.0737,-0.0725,-0.0719,-0.0774,-0.0779,-0.0797,-0.0909,-0.0911,-0.0799,-0.0802,-0.0805,-0.0807,0,0,0,0,0,0,0,-0.0676,-0.0686,-0.08,-0.075,-0.0746,-0.0723,-0.0727,-0.0799,-0.078,-0.0736,-0.073,-0.0736,-0.0772,-0.0792,-0.0798,-0.0912,-0.0798,-0.0804,-0.0808,-0.081,-0.1128,-0.1132,0,0,0,0,0,0,-0.0676,-0.0684,-0.0799,-0.0802,-0.0699,-0.073,-0.0734,-0.0766,-0.0779,-0.0777,-0.074,-0.0731,-0.0784,-0.0791,-0.0799,-0.0947,-0.0805,-0.081,-0.0814,-0.1123,-0.1129,-0.1134,0,0,0,0,0,0,-0.0673,-0.0688,-0.0797,-0.0741,-0.0753,-0.0737,-0.0774,-0.0769,-0.0789,-0.0782,-0.0778,-0.0763,-0.078,-0.079,-0.088,-0.0948,-0.0813,-0.0819,-0.1117,-0.1125,-0.1131,-0.1246,0,0,0,0,0,0,-0.0669,-0.0687,-0.0735,-0.0743,-0.0756,-0.0878,-0.0778,-0.0773,-0.0799,-0.0788,-0.0803,-0.0801,-0.0778,-0.0871,-0.0886,-0.0953,-0.0823,-0.1111,-0.112,-0.1129,-0.1236,-0.1256,-0.1274,0,0,0,0,0,-0.0664,-0.0767,-0.0738,-0.0753,-0.0816,-0.0882,-0.089,-0.086,-0.0805,-0.0853,-0.0848,-0.0801,-0.0938,-0.0881,-0.0897,-0.0967,-0.1107,-0.1118,-0.1128,-0.1228,-0.1252,-0.1273,0,0,0,0,0,0,-0.077,-0.0767,-0.0735,-0.0844,-0.0864,-0.0866,-0.0926,-0.0887,-0.0924,-0.0913,-0.0874,-0.0878,-0.0975,-0.098,-0.0917,-0.109,-0.1013,-0.1027,-0.1083,-0.1107,-0.1125,-0.1121,-0.0828,0,0,0,0,0,-0.0806,-0.0859,-0.0854,-0.095,-0.0961,-0.0942,-0.097,-0.0945,-0.0964,-0.0972,-0.0974,-0.0995,-0.1042,-0.1075,-0.1118,-0.1236,-0.1237,-0.1292,-0.1311,-0.1326,-0.1339,-0.14,-0.1424,-0.1169,-0.1169,-0.1169,0,0,-0.0881,-0.0886,-0.0922,-0.0972,-0.0984,-0.1039,-0.095,-0.1013,-0.1054,-0.0982,-0.1066,-0.1068,-0.1089,-0.1193,-0.1239,-0.12,-0.1409,-0.134,-0.1352,-0.1357,-0.1413,-0.1437,-0.1459,-0.1177,-0.1176,-0.1174,0,0,-0.1045,-0.1055,-0.1135,-0.1149,-0.1168,-0.1154,-0.1173,-0.1181,-0.1179,-0.1262,-0.1209,-0.1257,-0.134,-0.1357,-0.1376,-0.1544,-0.1502,-0.156,-0.1657,-0.1717,-0.1737,-0.1755,-0.1813,-0.1835,-0.1573,-0.1573,-0.1573,0,-0.1137,-0.1218,-0.1182,-0.1248,-0.1271,-0.1206,-0.1287,-0.1302,-0.1335,-0.1352,-0.1308,-0.1409,-0.1419,-0.1525,-0.1566,-0.1584,-0.1604,-0.1558,-0.1737,-0.1754,-0.177,-0.1825,-0.1848,-0.158,-0.1579,-0.1578,-0.1578,0,-0.1328,-0.1385,-0.1447,-0.1479,-0.1509,-0.1582,-0.1557,-0.1592,-0.1564,-0.1554,-0.1639,-0.1648,-0.1691,-0.1715,-0.1689,-0.1816,-0.1791,-0.1743,-0.1665,-0.1802,-0.1853,-0.1874,-0.159,-0.1587,-0.1585,-0.1583,0,0,-0.1562,-0.157,-0.1594,-0.1606,-0.1622,-0.1665,-0.1735,-0.1776,-0.1805,-0.183,-0.1887,-0.1958,-0.1912,-0.1934,-0.1909,-0.1962,-0.2092,-0.1906,-0.1906,-0.1939,-0.2232,-0.2267,-0.2293,-0.2064,-0.2068,-0.2071,-0.2229,0,-0.1723,-0.1842,-0.1811,-0.1929,-0.1981,-0.1919,-0.198,-0.1996,-0.1989,-0.2031,-0.2023,-0.2074,-0.201,-0.2023,-0.2072,-0.2066,-0.215,-0.2054,-0.2116,-0.2119,-0.2112,-0.232,-0.2358,-0.2507,-0.2249,-0.2253,-0.2255,0,-0.1928,-0.1958,-0.2082,-0.2086,-0.2106,-0.2161,-0.2195,-0.2237,-0.2253,-0.2244,-0.2268,-0.2231,-0.23,-0.2221,-0.2314,-0.2249,-0.2273,-0.2274,-0.2278,-0.2283,-0.2195,-0.2329,-0.2554,-0.2576,-0.2287,-0.2284,-0.2282,0,-0.2084,-0.2156,-0.2238,-0.2251,-0.2259,-0.2299,-0.2304,-0.2316,-0.2342,-0.2371,-0.2387,-0.2425,-0.2446,-0.2476,-0.2451,-0.2396,-0.2548,-0.2467,-0.2542,-0.2542,-0.2576,-0.2574,-0.2808,-0.2593,-0.2593,-0.2592,-0.2592,0,-0.2268,-0.2345,-0.2308,-0.2359,-0.2443,-0.2407,-0.2492,-0.249,-0.25,-0.2549,-0.2499,-0.2546,-0.251,-0.2555,-0.2535,-0.2614,-0.2625,-0.2619,-0.2613,-0.2623,-0.2624,-0.2637,-0.2626,-0.2598,-0.2597,-0.2596,-0.2595,0,-0.2457,-0.2435,-0.2521,-0.252,-0.2522,-0.2584,-0.2584,-0.263,-0.2619,-0.2681,-0.2694,-0.2676,-0.2725,-0.2702,-0.2755,-0.2741,-0.2843,-0.2823,-0.2837,-0.2832,-0.2907,-0.2899,-0.3157,-0.3188,-0.2954,-0.2957,-0.2958,0,-0.2575,-0.2632,-0.2638,-0.2666,-0.2674,-0.2721,-0.2746,-0.2712,-0.2741,-0.2762,-0.2807,-0.2851,-0.2884,-0.2965,-0.2957,-0.2996,-0.2976,-0.3064,-0.2982,-0.299,-0.2976,-0.2972,-0.2977,-0.308,-0.3083,-0.3085,-0.3087,0,-0.2786,-0.2772,-0.281,-0.2844,-0.2875,-0.2901,-0.2922,-0.2948,-0.2915,-0.2949,-0.2998,-0.3024,-0.3075,-0.3119,-0.3153,-0.3158,-0.3117,-0.3113,-0.3131,-0.3142,-0.3147,-0.3144,-0.2881,-0.3107,-0.3105,-0.3103,-0.3102,-0.3102,-0.2942,-0.2989,-0.3,-0.3043,-0.3055,-0.3076,-0.3118,-0.3111,-0.3151,-0.3189,-0.3167,-0.3224,-0.3237,-0.3277,-0.3288,-0.3331,-0.3297,-0.3325,-0.3332,-0.3339,-0.3348,-0.3141,-0.3338,-0.3337,-0.3337,-0.3336,-0.3336,0,-0.3149,-0.3152,-0.3192,-0.3222,-0.3256,-0.3213,-0.3234,-0.3265,-0.3315,-0.3331,-0.3364,-0.3419,-0.3461,-0.3455,-0.3494,-0.3529,-0.3511,-0.3541,-0.3537,-0.3539,-0.3378,-0.3357,-0.3554,-0.3554,-0.3554,-0.3554,-0.3554,-0.3554,-0.326,-0.3338,-0.3325,-0.3407,-0.341,-0.3464,-0.3479,-0.3497,-0.3509,-0.3572,-0.3606,-0.3602,-0.3609,-0.3646,-0.3683,-0.368,-0.3696,-0.3732,-0.3722,-0.3572,-0.355,-0.353,-0.351,-0.3736,-0.3736,-0.3879,-0.3881,-0.3882]},{"header":{"parameterUnit":"m.s-1","parameterCategory":1,"la1":30.2991,"la2":30.254,"lo1":-89.0895,"lo2":-89.0444,"dy":0.0017,"dx":0.0017,"nx":28,"ny":28,"refTime":"2023-11-06T09:00:00:Z","depth":0,"parameterNumber":3,"parameterNumberName":"V-component_of_WINDS"},"data":[0,0,0,0,0,0,0,0,0,0,0,0,0,0,0,0,0,0,0,0,0,0,0,0,0,0,0,0,0,0,0,0,0,0,0,0,0,0,0,0,0,0,0,0,0,0,0,0,0,0,0,0,0,0,0,0,0,0,1.6569,1.6568,0,1.6496,1.6495,1.6494,1.6533,1.6535,1.6537,1.6539,1.6455,1.6451,1.6447,0,0,0,0,0,0,0,0,0,0,0,0,0,1.6736,1.6733,1.6569,1.6568,1.6567,1.6496,1.6495,1.6494,1.6533,1.6535,1.6537,1.654,1.6457,1.6452,1.6447,0,0,0,0,0,0,0,0,0,0,0,0,0,1.6663,1.6731,1.6569,1.6578,1.6578,1.6496,1.6495,1.6493,1.6532,1.6535,1.6538,1.6541,1.6458,1.6452,1.6446,1.6348,0,0,1.6427,1.6425,0,0,0,0,0,0,0,0,1.6667,1.6656,1.6578,1.6578,1.6578,1.6527,1.6523,1.6444,1.6531,1.6549,1.6539,1.6542,1.6476,1.6469,1.6448,1.6344,1.634,1.6427,1.6423,1.642,1.6419,0,0,0,0,0,0,0,1.6672,1.666,1.654,1.6577,1.6576,1.6584,1.6577,1.6508,1.6496,1.6548,1.6551,1.6542,1.6476,1.6454,1.6446,1.6339,1.6427,1.6421,1.6418,1.6415,1.615,1.6147,0,0,0,0,0,0,1.6677,1.6664,1.6542,1.6538,1.6631,1.6578,1.657,1.654,1.6497,1.6494,1.6539,1.6544,1.6463,1.6453,1.6443,1.6325,1.642,1.6415,1.6411,1.6154,1.615,1.6146,0,0,0,0,0,0,1.6681,1.6666,1.6545,1.6601,1.6587,1.6572,1.6538,1.6537,1.6514,1.6491,1.6488,1.6519,1.6465,1.6452,1.6372,1.6323,1.6412,1.6406,1.6158,1.6153,1.6148,1.6088,0,0,0,0,0,0,1.6685,1.6667,1.6631,1.6601,1.6584,1.6477,1.6535,1.6533,1.6505,1.651,1.6471,1.6467,1.6466,1.6381,1.6366,1.6316,1.6402,1.6162,1.6155,1.6149,1.6094,1.6081,1.6071,0,0,0,0,0,1.6691,1.6616,1.6629,1.6614,1.6539,1.6474,1.6464,1.6466,1.6501,1.6463,1.6448,1.6469,1.6331,1.6372,1.6356,1.6303,1.6165,1.6157,1.615,1.6099,1.6084,1.6071,0,0,0,0,0,0,1.6638,1.6612,1.6627,1.6539,1.6509,1.6481,1.6434,1.645,1.6407,1.6413,1.6416,1.6407,1.6323,1.6305,1.6352,1.6206,1.6253,1.6242,1.622,1.6205,1.6194,1.6199,1.6396,0,0,0,0,0,1.6617,1.6569,1.6547,1.6472,1.6457,1.6448,1.6419,1.6425,1.6392,1.6378,1.6357,1.6323,1.6272,1.6238,1.619,1.6093,1.6084,1.6048,1.6036,1.6027,1.6016,1.5963,1.5946,1.6121,1.6121,1.6122,0,0,1.6571,1.6551,1.6519,1.6461,1.6438,1.6386,1.6436,1.6379,1.6339,1.6368,1.6292,1.6276,1.6237,1.6148,1.6107,1.613,1.5966,1.6017,1.601,1.6004,1.5953,1.5937,1.5922,1.6116,1.6117,1.6118,0,0,1.646,1.6441,1.6376,1.6353,1.6319,1.6314,1.6298,1.6268,1.6259,1.6183,1.6204,1.6156,1.6068,1.604,1.6014,1.5894,1.5911,1.5878,1.5816,1.5763,1.575,1.5737,1.5693,1.5677,1.5868,1.5868,1.5868,0,1.6406,1.6331,1.634,1.6281,1.6254,1.6282,1.6215,1.6191,1.6141,1.6121,1.6148,1.6039,1.6015,1.5919,1.5891,1.5869,1.585,1.5882,1.5752,1.5739,1.5728,1.5686,1.5669,1.5864,1.5865,1.5865,1.5866,0,1.6266,1.6214,1.6165,1.612,1.6088,1.6025,1.6022,1.5987,1.5996,1.5987,1.5909,1.5881,1.5828,1.5806,1.5812,1.5711,1.5726,1.5752,1.5799,1.5707,1.5667,1.5651,1.5859,1.586,1.5862,1.5862,0,0,1.6118,1.608,1.6062,1.6042,1.6007,1.5965,1.5903,1.5854,1.5824,1.5789,1.5735,1.5662,1.5686,1.5657,1.566,1.5614,1.552,1.5646,1.5645,1.5622,1.5405,1.5384,1.5365,1.5532,1.5529,1.5526,1.5407,0,1.6004,1.5899,1.5905,1.5805,1.5755,1.5782,1.5728,1.5699,1.5689,1.5644,1.5633,1.558,1.5617,1.56,1.5556,1.5541,1.5476,1.555,1.5479,1.5477,1.5486,1.5345,1.5322,1.5211,1.5392,1.539,1.5388,0,1.5856,1.582,1.5716,1.5689,1.5668,1.562,1.5575,1.5533,1.55,1.5496,1.5464,1.5476,1.5411,1.5462,1.5371,1.5421,1.5393,1.5381,1.5377,1.5368,1.5425,1.5331,1.5176,1.5159,1.5364,1.5366,1.5367,0,1.5757,1.5681,1.5609,1.5591,1.5558,1.5523,1.5507,1.5478,1.5448,1.5409,1.5389,1.5341,1.5315,1.5276,1.5274,1.5311,1.5181,1.5233,1.5174,1.5174,1.5144,1.5145,1.498,1.5129,1.5129,1.5129,1.513,0,1.5628,1.5562,1.5564,1.5519,1.5446,1.5454,1.5381,1.5368,1.5342,1.5294,1.5313,1.5267,1.5267,1.5219,1.5216,1.5141,1.5129,1.5122,1.5122,1.5119,1.512,1.5099,1.5106,1.5125,1.5126,1.5127,1.5128,0,1.5503,1.5502,1.5425,1.5401,1.5393,1.534,1.5319,1.5275,1.5269,1.5207,1.5193,1.5181,1.5126,1.5121,1.5055,1.5053,1.4962,1.4971,1.4973,1.4974,1.4916,1.4921,1.473,1.4705,1.4871,1.487,1.4869,0,1.5419,1.537,1.5342,1.5313,1.5296,1.5247,1.5218,1.5223,1.5191,1.5152,1.5112,1.506,1.5018,1.4928,1.4912,1.4862,1.4868,1.4805,1.486,1.486,1.4865,1.4867,1.4862,1.4793,1.4791,1.479,1.4789,0,1.5271,1.5274,1.5232,1.519,1.5155,1.5121,1.509,1.5064,1.5065,1.5028,1.4973,1.4941,1.4876,1.4822,1.4774,1.4755,1.4771,1.4772,1.4756,1.4751,1.4755,1.4751,1.4942,1.4776,1.4777,1.4778,1.4779,1.4779,1.5163,1.5121,1.5095,1.5047,1.5025,1.4996,1.4954,1.4943,1.4899,1.4848,1.4854,1.4793,1.4761,1.4698,1.4676,1.4627,1.4647,1.4624,1.4618,1.4611,1.4605,1.4765,1.4618,1.4618,1.4619,1.4619,1.4619,0,1.5015,1.5,1.4957,1.4914,1.4876,1.4899,1.4865,1.4831,1.4778,1.4749,1.4709,1.4645,1.4594,1.4575,1.4525,1.4489,1.4495,1.4475,1.4476,1.4472,1.459,1.4608,1.4471,1.4471,1.4471,1.4471,1.4471,1.4471,1.4933,1.4862,1.4861,1.4779,1.4764,1.4707,1.4686,1.4658,1.4635,1.4564,1.4523,1.4513,1.4487,1.4435,1.4388,1.4384,1.4363,1.434,1.4338,1.4448,1.4463,1.4477,1.4495,1.4336,1.4336,1.4224,1.4223,1.4222]}]]